Weather History for Frederick, OK

Change the Weather History Date:

Wednesday, December 26, 2012

  Actual Average (KLTS) Record (KLTS)
Temperature  
Mean Temperature 20 °F -  
Max Temperature 26 °F 49 °F 76 °F (2008)
Min Temperature 14 °F 25 °F 12 °F (2012)
Degree Days  
Heating Degree Days 45    
Moisture  
Dew Point 10 °F    
Average Humidity 67    
Maximum Humidity 78    
Minimum Humidity 53    
Precipitation  
Precipitation 0.00 in - - ()
Sea Level Pressure  
Sea Level Pressure 30.21 in    
Wind  
Wind Speed 14 mph (North)    
Max Wind Speed 25 mph    
Max Gust Speed 30 mph    
Visibility 10 miles    
Events      
Averages and records for this station are not official NWS values.
T = Trace of Precipitation, MM = Missing Value Source: NWS Daily Summary

Daily Weather History Graph

Daily Weather History Graph

Search for Another Location

Airport:

Trip Planner

Search our weather history database for the weather conditions in past years. The results will help you decide how hot, cold, wet, or windy it might be!

Date:

Astronomy

Dec. 26, 2012 Rise Set
Actual Time 7:40 AM CST 5:33 PM CST
Civil Twilight 7:12 AM CST 6:00 PM CST
Nautical Twilight 6:41 AM CST 6:32 PM CST
Astronomical Twilight 6:10 AM CST 7:02 PM CST
Moon 4:26 PM CST (12/26) 6:06 AM CST (12/26)
Length of Visible Light 10h 48m
Length of Day
9h 52m
Waxing Gibbous, 97% of the Moon is Illuminated
Dec 26
Waxing Gibbous
Dec 28
Full
Jan 4
Last Quarter
Jan 11
New
Jan 18
First Quarter

Hourly Weather History & Observations

Time (CST) Temp. Windchill Dew Point Humidity Pressure Visibility Wind Dir Wind Speed Gust Speed Precip Events Conditions
12:53 AM 19.0 °F 1.3 °F 10.0 °F 68% 30.27 in 10.0 mi North 25.3 mph 29.9 mph N/A   Overcast
1:53 AM 18.0 °F 0.6 °F 9.0 °F 68% 30.25 in 10.0 mi North 23.0 mph - N/A   Overcast
2:53 AM 18.0 °F 1.3 °F 9.0 °F 68% 30.23 in 10.0 mi North 20.7 mph - N/A   Overcast
3:36 AM 15.8 °F 2.1 °F 6.8 °F 68% 30.21 in 10.0 mi North 12.7 mph - N/A   Scattered Clouds
3:53 AM 17.1 °F 3.6 °F 7.0 °F 65% 30.27 in 10.0 mi NW 12.7 mph - N/A   Clear
4:53 AM 14.0 °F -0.2 °F 6.1 °F 71% 30.27 in 10.0 mi WNW 12.7 mph - N/A   Clear
5:53 AM 15.1 °F 1.1 °F 6.1 °F 68% 30.29 in 10.0 mi NW 12.7 mph - N/A   Clear
6:53 AM 15.1 °F 2.5 °F 6.1 °F 68% 30.27 in 10.0 mi NNW 10.4 mph - N/A   Clear
7:53 AM 14.0 °F 0.5 °F 6.1 °F 71% 30.29 in 10.0 mi NNW 11.5 mph - N/A   Clear
8:53 AM 16.0 °F 2.9 °F 7.0 °F 68% 30.31 in 10.0 mi NNW 11.5 mph - N/A   Clear
9:53 AM 18.0 °F 5.4 °F 8.1 °F 65% 30.32 in 10.0 mi NW 11.5 mph - N/A   Clear
10:53 AM 19.9 °F 7.9 °F 9.0 °F 62% 30.32 in 10.0 mi North 11.5 mph - N/A   Clear
11:53 AM 21.9 °F 12.5 °F 10.0 °F 60% 30.28 in 10.0 mi North 8.1 mph - N/A   Clear
12:53 PM 24.1 °F 14.4 °F 10.9 °F 57% 30.22 in 10.0 mi NNE 9.2 mph - N/A   Clear
1:53 PM 26.1 °F - 10.9 °F 53% 30.21 in 10.0 mi Calm Calm - N/A   Clear
2:53 PM 25.0 °F - 10.9 °F 55% 30.20 in 10.0 mi Calm Calm - N/A   Clear
3:53 PM 25.0 °F - 12.0 °F 58% 30.18 in 10.0 mi Calm Calm - N/A   Clear
4:53 PM 25.0 °F - 12.9 °F 60% 30.15 in 10.0 mi Calm Calm - N/A   Clear
5:53 PM 23.0 °F 18.4 °F 15.1 °F 72% 30.14 in 10.0 mi ESE 3.5 mph - N/A   Clear
6:53 PM 21.0 °F 13.4 °F 14.0 °F 74% 30.14 in 10.0 mi SE 5.8 mph - N/A   Clear
7:53 PM 19.0 °F 9.0 °F 12.9 °F 77% 30.12 in 10.0 mi ESE 8.1 mph - N/A   Clear
8:53 PM 18.0 °F 9.8 °F 12.0 °F 78% 30.12 in 10.0 mi ESE 5.8 mph - N/A   Clear
9:53 PM 18.0 °F 11.1 °F 12.0 °F 78% 30.12 in 10.0 mi SE 4.6 mph - N/A   Clear
10:53 PM 19.0 °F 11.1 °F 12.9 °F 77% 30.11 in 10.0 mi SE 5.8 mph - N/A   Clear
11:53 PM 19.9 °F 11.1 °F 14.0 °F 78% 30.08 in 10.0 mi ESE 6.9 mph - N/A   Clear